When you browse on this site, cookies collect data to enhance your experience and personalize the content and advertising you see.
Visit our Privacy Policy to learn more. By continuing to use the site, you agree to this use of cookies and data.
  • In Romania
  • List of Countries
  • For 7 days
  • Water Temperature
  • Satellite Maps
  • Weather Map
  • Weather Widgets
  • user-avatar
    Login

    Hourly Weather Kilkenny

    Today, 26 March, Tuesday

    Time Temperature Precipitation Wind Pressure Humidity
    00:00 +6°C° 0 mm 0 mps 771 mmHg 84%
    01:00 +5°C° 0 mm 0 mps 771 mmHg 85%
    02:00 +6°C° 0 mm 1 mps 771 mmHg 87%
    03:00 +5°C° 0 mm 1 mps 771 mmHg 88%
    04:00 +5°C° 0 mm 1 mps 771 mmHg 89%
    05:00 +5°C° 0 mm 1 mps 770 mmHg 90%
    06:00 +4°C° 0 mm 1 mps 770 mmHg 91%
    07:00 +6°C° 0 mm 1 mps 770 mmHg 88%
    08:00 +7°C° 0 mm 1 mps 770 mmHg 84%
    09:00 +9°C° 0 mm 1 mps 771 mmHg 81%
    10:00 +9°C° 0 mm 2 mps 770 mmHg 77%
    11:00 +10°C° 0 mm 2 mps 770 mmHg 73%
    12:00 +13°C° 0 mm 2 mps 770 mmHg 70%
    13:00 +13°C° 0 mm 2 mps 770 mmHg 70%
    14:00 +13°C° 0 mm 2 mps 770 mmHg 70%
    15:00 +13°C° 0 mm 2 mps 770 mmHg 70%
    16:00 +13°C° 0 mm 2 mps 770 mmHg 74%
    17:00 +12°C° 0 mm 1 mps 770 mmHg 77%
    18:00 +12°C° 0 mm 1 mps 770 mmHg 80%
    19:00 +10°C° 0 mm 1 mps 770 mmHg 83%
    20:00 +9°C° 0 mm 1 mps 770 mmHg 86%
    21:00 +8°C° 0 mm 1 mps 771 mmHg 89%
    22:00 +7°C° 0 mm 1 mps 771 mmHg 90%
    23:00 +6°C° 0 mm 1 mps 771 mmHg 91%

    Tomorrow, 27 March, Wednesday

    Time Temperature Precipitation Wind Pressure Humidity
    00:00 +5°C° 0 mm 1 mps 771 mmHg 93%
    01:00 +5°C° 0 mm 1 mps 771 mmHg 93%
    02:00 +4°C° 0 mm 1 mps 771 mmHg 93%
    03:00 +4°C° 0 mm 1 mps 771 mmHg 93%
    04:00 +4°C° 0 mm 1 mps 771 mmHg 93%
    05:00 +4°C° 0 mm 1 mps 771 mmHg 93%
    06:00 +2°C° 0 mm 0 mps 771 mmHg 93%
    07:00 +5°C° 0 mm 1 mps 771 mmHg 90%
    08:00 +7°C° 0 mm 1 mps 771 mmHg 86%
    09:00 +9°C° 0 mm 1 mps 771 mmHg 83%
    10:00 +10°C° 0 mm 1 mps 772 mmHg 77%
    11:00 +12°C° 0 mm 2 mps 772 mmHg 71%
    12:00 +13°C° 0 mm 2 mps 772 mmHg 66%
    13:00 +14°C° 0 mm 2 mps 772 mmHg 64%
    14:00 +14°C° 0 mm 2 mps 772 mmHg 63%
    15:00 +15°C° 0 mm 2 mps 772 mmHg 62%
    16:00 +14°C° 0 mm 2 mps 772 mmHg 67%
    17:00 +13°C° 0 mm 2 mps 772 mmHg 72%
    18:00 +12°C° 0 mm 1 mps 772 mmHg 78%
    19:00 +11°C° 0 mm 1 mps 772 mmHg 81%
    20:00 +9°C° 0 mm 1 mps 772 mmHg 85%
    21:00 +7°C° 0 mm 1 mps 772 mmHg 89%
    22:00 +7°C° 0 mm 1 mps 772 mmHg 90%
    23:00 +6°C° 0 mm 1 mps 773 mmHg 92%

    Day after tomorrow, 28 March, Thursday

    Time Temperature Precipitation Wind Pressure Humidity
    00:00 +6°C° 0 mm 1 mps 773 mmHg 93%
    01:00 +5°C° 0 mm 1 mps 773 mmHg 93%
    02:00 +5°C° 0 mm 1 mps 773 mmHg 93%
    03:00 +3°C° 0 mm 0 mps 773 mmHg 93%
    04:00 +3°C° 0 mm 0 mps 773 mmHg 93%
    05:00 +3°C° 0 mm 0 mps 772 mmHg 93%
    06:00 +3°C° 0 mm 0 mps 772 mmHg 93%
    07:00 +5°C° 0 mm 0 mps 773 mmHg 89%
    08:00 +6°C° 0 mm 0 mps 773 mmHg 85%
    09:00 +8°C° 0 mm 0 mps 773 mmHg 82%
    10:00 +11°C° 0 mm 1 mps 773 mmHg 77%
    11:00 +13°C° 0 mm 1 mps 772 mmHg 72%
    12:00 +14°C° 0 mm 2 mps 772 mmHg 68%
    13:00 +15°C° 0 mm 2 mps 772 mmHg 67%
    14:00 +14°C° 0 mm 3 mps 772 mmHg 67%
    15:00 +16°C° 0 mm 3 mps 771 mmHg 67%
    16:00 +13°C° 0 mm 3 mps 771 mmHg 72%
    17:00 +12°C° 0 mm 3 mps 770 mmHg 78%
    18:00 +11°C° 0 mm 3 mps 770 mmHg 83%
    19:00 +9°C° 0 mm 2 mps 770 mmHg 86%
    20:00 +7°C° 0 mm 2 mps 770 mmHg 88%
    21:00 +5°C° 0 mm 2 mps 770 mmHg 91%
    22:00 +5°C° 0 mm 2 mps 770 mmHg 90%
    23:00 +4°C° 0 mm 2 mps 770 mmHg 89%

    29 March, Friday

    Time Temperature Precipitation Wind Pressure Humidity
    00:00 +3°C° 0 mm 2 mps 770 mmHg 88%
    01:00 +3°C° 0 mm 2 mps 769 mmHg 89%
    02:00 +3°C° 0 mm 2 mps 769 mmHg 90%
    03:00 +3°C° 0 mm 2 mps 768 mmHg 91%
    04:00 +3°C° 0 mm 2 mps 768 mmHg 92%
    05:00 +3°C° 0 mm 2 mps 768 mmHg 93%
    06:00 +3°C° 0 mm 2 mps 767 mmHg 93%
    07:00 +5°C° 0 mm 2 mps 767 mmHg 89%
    08:00 +7°C° 0 mm 3 mps 768 mmHg 85%
    09:00 +9°C° 0 mm 3 mps 768 mmHg 80%
    10:00 +11°C° 0 mm 3 mps 767 mmHg 76%
    11:00 +12°C° 0 mm 3 mps 767 mmHg 72%
    12:00 +14°C° 0 mm 3 mps 767 mmHg 67%
    13:00 +14°C° 0 mm 3 mps 766 mmHg 67%
    14:00 +14°C° 0 mm 3 mps 766 mmHg 67%
    15:00 +15°C° 0 mm 4 mps 765 mmHg 67%
    16:00 +13°C° 0 mm 3 mps 765 mmHg 73%
    17:00 +12°C° 0 mm 3 mps 765 mmHg 78%
    18:00 +11°C° 0 mm 3 mps 764 mmHg 83%
    19:00 +9°C° 0 mm 2 mps 765 mmHg 86%
    20:00 +7°C° 0 mm 2 mps 765 mmHg 90%
    21:00 +6°C° 0 mm 2 mps 765 mmHg 93%
    22:00 +5°C° 0 mm 2 mps 765 mmHg 92%
    23:00 +6°C° 0 mm 1 mps 764 mmHg 92%

    30 March, Saturday

    Time Temperature Precipitation Wind Pressure Humidity
    00:00 +5°C° 0 mm 1 mps 764 mmHg 92%
    01:00 +5°C° 0 mm 1 mps 764 mmHg 92%
    02:00 +5°C° 0 mm 1 mps 764 mmHg 93%
    03:00 +5°C° 0 mm 1 mps 763 mmHg 93%
    04:00 +5°C° 0 mm 1 mps 763 mmHg 95%
    05:00 +5°C° 0 mm 1 mps 763 mmHg 96%
    06:00 +5°C° 0 mm 1 mps 763 mmHg 97%
    07:00 +7°C° 0 mm 1 mps 763 mmHg 92%
    08:00 +9°C° 0 mm 1 mps 763 mmHg 88%
    09:00 +11°C° 0 mm 1 mps 764 mmHg 84%
    10:00 +12°C° 0 mm 2 mps 764 mmHg 79%
    11:00 +12°C° 0 mm 2 mps 764 mmHg 74%
    12:00 +12°C° 0 mm 3 mps 764 mmHg 69%
    13:00 +12°C° 0.1 mm 3 mps 764 mmHg 73%
    14:00 +11°C° 0.1 mm 4 mps 764 mmHg 78%
    15:00 +10°C° 0.1 mm 5 mps 764 mmHg 83%
    16:00 +10°C° 0.1 mm 4 mps 764 mmHg 84%
    17:00 +8°C° 0.1 mm 4 mps 765 mmHg 85%
    18:00 +7°C° 0.1 mm 4 mps 765 mmHg 86%
    19:00 +5°C° 0 mm 4 mps 766 mmHg 86%
    20:00 +4°C° 0 mm 4 mps 766 mmHg 85%
    21:00 +3°C° 0 mm 4 mps 767 mmHg 85%
    22:00 +1°C° 0 mm 4 mps 767 mmHg 85%
    23:00 +1°C° 0 mm 3 mps 768 mmHg 86%

    31 March, Sunday

    Time Temperature Precipitation Wind Pressure Humidity
    00:00 0°C° 0 mm 3 mps 768 mmHg 86%
    01:00 0°C° 0 mm 3 mps 768 mmHg 87%
    02:00 -1°C° 0 mm 3 mps 768 mmHg 88%
    03:00 -1°C° 0 mm 3 mps 768 mmHg 89%
    04:00 -1°C° 0 mm 3 mps 768 mmHg 90%
    05:00 -2°C° 0 mm 3 mps 768 mmHg 91%
    06:00 -2°C° 0 mm 3 mps 768 mmHg 91%
    07:00 0°C° 0 mm 4 mps 769 mmHg 86%
    08:00 +3°C° 0 mm 4 mps 769 mmHg 80%
    09:00 +5°C° 0 mm 5 mps 770 mmHg 75%
    10:00 +6°C° 0 mm 4 mps 770 mmHg 70%
    11:00 +7°C° 0 mm 4 mps 770 mmHg 66%
    12:00 +8°C° 0 mm 4 mps 770 mmHg 62%
    13:00 +8°C° 0 mm 4 mps 770 mmHg 61%
    14:00 +8°C° 0 mm 4 mps 770 mmHg 60%
    15:00 +9°C° 0 mm 3 mps 769 mmHg 59%
    16:00 +8°C° 0 mm 3 mps 769 mmHg 64%
    17:00 +8°C° 0 mm 2 mps 769 mmHg 68%
    18:00 +7°C° 0 mm 2 mps 769 mmHg 73%
    19:00 +5°C° 0 mm 2 mps 769 mmHg 77%
    20:00 +4°C° 0 mm 1 mps 769 mmHg 82%
    21:00 +2°C° 0 mm 1 mps 770 mmHg 86%
    22:00 +2°C° 0 mm 1 mps 769 mmHg 86%
    23:00 +1°C° 0 mm 1 mps 769 mmHg 86%
    Show more